CW8917 Weather Reports


time (UTC)temp
F
wind
direction
speed
knots
gust
knots
rain 1hr
in
rain 24hr
in
rain mn
in
humidity
%
barometer
mb
20260502105630 41 205 0.0 3.5 0.00 0.00 0.00 68 1019.3
20260502104619 43 232 3.5 4.3 0.00 0.00 0.00 66 1019.2
20260502103626 42 84 0.9 3.5 0.00 0.00 0.00 69 1019.3
20260502102616 42 198 0.0 1.7 0.00 0.00 0.00 70 1019.3
20260502101628 41 198 0.9 1.7 0.00 0.00 0.00 70 1019.3
20260502100618 41 201 0.0 2.6 0.00 0.00 0.00 69 1019.2
20260502090626 43 204 0.9 2.6 0.00 0.00 0.00 65 1019.1
20260502070642 48 49 1.7 4.3 0.00 0.00 0.00 60 1019.0
20260502065626 51 321 1.7 7.0 0.00 0.00 0.00 55 1019.0
20260502064618 50 63 0.9 5.2 0.00 0.00 0.00 50 1018.9
20260502063626 49 50 1.7 3.5 0.00 0.00 0.00 60 1018.8
20260502062616 49 55 2.6 3.5 0.00 0.00 0.00 60 1018.8
20260502061627 51 275 1.7 4.3 0.00 0.00 0.00 51 1018.7
20260502060628 51 76 1.7 4.3 0.00 0.00 0.00 46 1018.5
20260502055628 49 248 0.0 0.0 0.00 0.00 0.00 55 1018.5
20260502054615 49 248 0.0 2.6 0.00 0.00 0.00 55 1018.5
20260502053645 50 248 1.7 3.5 0.00 0.00 0.00 54 1018.3
20260502052619 51 152 1.7 2.6 0.00 0.00 0.00 51 1018.2
20260502051629 51 153 0.9 4.3 0.00 0.00 0.00 51 1018.2
20260502050620 52 167 0.9 2.6 0.00 0.00 0.00 51 1018.2
20260502045618 53 166 2.6 2.6 0.00 0.00 0.00 50 1018.2
20260502044629 54 166 0.9 4.3 0.00 0.00 0.00 47 1018.2
20260502043638 54 168 1.7 2.6 0.00 0.00 0.00 46 1018.2
20260502042625 54 168 1.7 4.3 0.00 0.00 0.00 47 1018.2
20260502041632 54 165 1.7 3.5 0.00 0.00 0.00 47 1018.2
20260502040624 54 165 1.7 2.6 0.00 0.00 0.00 48 1018.0
20260502035626 55 165 1.7 4.3 0.00 0.00 0.00 45 1017.9
20260502034614 58 155 1.7 4.3 0.00 0.00 0.00 39 1017.7
20260502033624 57 222 0.0 2.6 0.00 0.00 0.00 40 1017.6
20260502032619 57 227 0.0 3.5 0.00 0.00 0.00 42 1017.6
20260502031630 58 243 0.9 1.7 0.00 0.00 0.00 41 1017.4
20260502030641 58 248 0.9 1.7 0.00 0.00 0.00 41 1017.2
20260502025620 59 255 0.9 1.7 0.00 0.00 0.00 45 1017.0
20260502024613 61 255 0.9 1.7 0.00 0.00 0.00 42 1016.9
20260502023622 64 256 1.7 3.5 0.00 0.00 0.00 33 1016.9
20260502022630 65 333 0.0 0.9 0.00 0.00 0.00 24 1016.7
20260502021637 66 333 0.9 1.7 0.00 0.00 0.00 24 1016.7
20260502020627 67 333 0.9 1.7 0.00 0.00 0.00 24 1016.7
20260502015626 67 332 0.0 2.6 0.00 0.00 0.00 26 1016.6
20260502014613 67 331 0.9 2.6 0.00 0.00 0.00 25 1016.7
20260502013621 68 330 1.7 3.5 0.00 0.00 0.00 25 1016.6
20260502012632 68 276 1.7 4.3 0.00 0.00 0.00 24 1016.6
20260502011620 68 333 0.9 4.3 0.00 0.00 0.00 23 1016.6
20260502010649 68 36 1.7 3.5 0.00 0.00 0.00 23 1016.6
20260502005626 68 296 2.6 4.3 0.00 0.00 0.00 24 1016.7
20260502004617 68 347 1.7 3.5 0.00 0.00 0.00 24 1016.6
20260502003646 68 44 1.7 5.2 0.00 0.00 0.00 24 1016.7
20260502002615 68 331 2.6 7.0 0.00 0.00 0.00 25 1016.7
20260502001623 68 309 2.6 6.1 0.00 0.00 0.00 25 1016.8
20260502000634 68 66 3.5 7.0 0.00 0.00 0.00 25 1016.8
20260501235614 68 309 3.5 7.8 0.00 0.00 0.00 26 1016.9
20260501234624 68 333 3.5 7.8 0.00 0.00 0.00 26 1017.0
20260501233614 67 257 4.3 7.8 0.00 0.00 0.00 26 1017.1
20260501232622 67 309 2.6 7.8 0.00 0.00 0.00 28 1017.0
20260501231638 68 324 0.9 7.8 0.00 0.00 0.00 26 1017.0
20260501230627 68 311 5.2 9.6 0.00 0.00 0.00 26 1017.2
20260501225625 67 41 2.6 4.3 0.00 0.00 0.00 26 1017.2
20260501224615 67 275 1.7 8.7 0.00 0.00 0.00 27 1017.3
20260501223628 67 267 5.2 7.8 0.00 0.00 0.00 28 1017.4
20260501222617 67 236 0.9 7.0 0.00 0.00 0.00 25 1017.6
20260501221628 67 339 2.6 8.7 0.00 0.00 0.00 26 1017.7
20260501220615 67 32 1.7 5.2 0.00 0.00 0.00 28 1017.8
20260501215617 66 12 1.7 7.8 0.00 0.00 0.00 27 1018.0
20260501214626 66 40 2.6 7.0 0.00 0.00 0.00 26 1018.0
20260501213652 65 260 3.5 13.9 0.00 0.00 0.00 29 1018.2
20260501212620 66 302 2.6 7.8 0.00 0.00 0.00 28 1018.3
20260501211614 65 39 4.3 7.8 0.00 0.00 0.00 29 1018.4
20260501210624 65 342 4.3 7.8 0.00 0.00 0.00 28 1018.5
20260501205626 64 322 3.5 8.7 0.00 0.00 0.00 30 1018.5
20260501204614 65 304 2.6 8.7 0.00 0.00 0.00 30 1018.6
20260501203627 65 288 1.7 7.8 0.00 0.00 0.00 28 1018.6
20260501202653 64 44 5.2 9.6 0.00 0.00 0.00 30 1018.7
20260501201620 63 9 3.5 10.4 0.00 0.00 0.00 32 1018.7
20260501200625 63 284 1.7 8.7 0.00 0.00 0.00 32 1018.7
20260501195645 63 86 0.9 7.8 0.00 0.00 0.00 29 1018.8
20260501194616 63 44 4.3 9.6 0.00 0.00 0.00 31 1018.9
20260501193625 62 271 1.7 7.8 0.00 0.00 0.00 33 1019.0
20260501192616 61 235 1.7 7.0 0.00 0.00 0.00 33 1019.0
20260501191630 61 277 3.5 6.1 0.00 0.00 0.00 34 1019.1
20260501190619 61 355 1.7 8.7 0.00 0.00 0.00 33 1019.2
20260501185618 61 240 2.6 8.7 0.00 0.00 0.00 33 1019.3
20260501184625 60 239 1.7 5.2 0.00 0.00 0.00 35 1019.4
20260501183617 61 360 2.6 6.1 0.00 0.00 0.00 36 1019.6
20260501182626 60 271 2.6 5.2 0.00 0.00 0.00 38 1019.6
20260501181614 60 344 1.7 4.3 0.00 0.00 0.00 34 1019.7
20260501180634 59 10 1.7 7.0 0.00 0.00 0.00 35 1019.7
20260501175632 59 35 2.6 5.2 0.00 0.00 0.00 34 1019.8
20260501174625 58 32 1.7 7.0 0.00 0.00 0.00 37 1019.9
20260501173633 58 34 3.5 5.2 0.00 0.00 0.00 37 1020.0
20260501172622 58 324 1.7 4.3 0.00 0.00 0.00 37 1020.1
20260501171627 58 25 0.9 4.3 0.00 0.00 0.00 39 1020.2
20260501170620 57 317 1.7 4.3 0.00 0.00 0.00 44 1020.2
20260501165618 56 32 1.7 5.2 0.00 0.00 0.00 42 1020.4
20260501164628 56 280 1.7 5.2 0.00 0.00 0.00 46 1020.4
20260501163637 55 265 1.7 5.2 0.00 0.00 0.00 47 1020.4